Regional Weather Roundup
Issued by NWS

Home | Current Version | Previous Version | Graphics & Text | Print | Product List | Glossary On
Versions: 1 2 3 4 5 6 7 8 9 10 11 12 13 14 15 16 17 18 19 20 21 22 23 24 25 26 27 28 29 30 31 32 33 34 35 36 37 38 39 40 41 42 43 44 45 46 47 48 49 50
000
ASUS44 KMEG 191010
RWRTN
TENNESSEE HOURLY STATE WEATHER ROUNDUP
NATIONAL WEATHER SERVICE MEMPHIS TN
500 AM CDT SUN APR 19 2015

TNZ002-004-019-021-049-052-054-088>092-191100-
WEST TENNESSEE

CITY           SKY/WX    TMP DP  RH WIND       PRES   REMARKS
MEMPHIS INTL   LGT RAIN  66  63  90 S8        29.67F
NWS MEMPHIS      N/A     65 N/A N/A MISG        N/A
JACKSON        LGT RAIN  65  63  93 CALM      29.69F
DYERSBURG      CLOUDY    64  52  63 CALM      29.69F
UNION CITY     CLOUDY    63  32  31 CALM      29.69F
PARIS          CLOUDY    63  63 100 SE3       29.71F
LEXINGTON      CLOUDY    63  63 100 CALM      29.69F
SAVANNAH       CLOUDY    64  32  29 CALM      29.70F
$$

TNZ008-025-027-028-033-062-065-066-191100-
NORTH MIDDLE TENNESSEE

CITY           SKY/WX    TMP DP  RH WIND       PRES   REMARKS
NASHVILLE      RAIN      64  64 100 SE5       29.74F FOG
CLARKSVILLE    LGT RAIN  64  63  96 SE6       29.72F FOG
SMYRNA         RAIN      64  64 100 E3        29.75F
COOKEVILLE     CLOUDY    64  63  94 S7        29.79S
CROSSVILLE     LGT RAIN  64  60  87 SE5       29.84F
$$

TNZ061-075-076-078-094-096-097-191100-
SOUTH MIDDLE TENNESSEE

CITY           SKY/WX    TMP DP  RH WIND       PRES   REMARKS
FAYETTEVILLE   CLOUDY    63  63 100 SE8       29.74F
TULLAHOMA      MOCLDY    64  63  94 CALM      29.76F
WINCHESTER     CLOUDY    64  64 100 SE7       29.75F
MCMINNVILLE    CLOUDY    64  64 100 E3        29.78F
COLUMBIA       CLOUDY    64  32  29 SE3       29.71F
SHELBYVILLE    CLOUDY    66  66 100 E7        29.75F
$$

TNZ017-018-042-046-047-191100-
NORTHEAST TENNESSEE

CITY           SKY/WX    TMP DP  RH WIND       PRES   REMARKS
TRI CITIES     CLOUDY    66  57  72 E7        29.90F
ELIZABETHTON   PTSUNNY   63  55  77 VRB5      29.91F
$$

TNZ012-013-036-069-073-074-191100-
CENTRAL EAST TENNESSEE

CITY           SKY/WX    TMP DP  RH WIND       PRES   REMARKS
KNOXVILLE      NOT AVBL
OAK RIDGE      CLOUDY    64  62  93 CALM      29.85F
GATLINBURG     CLOUDY    63  63 100 CALM      29.84S
MORRISTOWN     PTSUNNY   64  59  82 E5        29.86F
$$

TNZ083-085-099-191100-
SOUTHEAST TENNESSEE

CITY           SKY/WX    TMP DP  RH WIND       PRES   REMARKS
CHATTANOOGA    LGT RAIN  66  64  93 SE5       29.80F FOG
$$

SKY/WX REPORTED AS FAIR MEANS FEW OR NO CLOUDS BELOW
12 THOUSAND FEET.



USA.gov is the U.S. government's official web portal to all federal, state and local government web resources and services.